• In Italy
  • List of Countries
  • For 7 days
  • Water Temperature
  • Satellite Maps
  • Weather Map
  • Weather Widgets
  • user-avatar
    Login

    Hourly Weather Patna

    Today, 19 November, Sunday

    Time Temperature Precipitation Wind Pressure Humidity
    00:00 +26°C° 0 mm 1 mps 753 mmHg 54%
    01:00 +26°C° 0 mm 1 mps 753 mmHg 56%
    02:00 +25°C° 0 mm 1 mps 753 mmHg 58%
    03:00 +25°C° 0 mm 1 mps 753 mmHg 59%
    04:00 +24°C° 0 mm 1 mps 753 mmHg 61%
    05:00 +24°C° 0 mm 1 mps 753 mmHg 62%
    06:00 +24°C° 0 mm 1 mps 753 mmHg 63%
    07:00 +25°C° 0 mm 1 mps 754 mmHg 60%
    08:00 +26°C° 0 mm 2 mps 754 mmHg 56%
    09:00 +27°C° 0 mm 2 mps 755 mmHg 53%
    10:00 +29°C° 0 mm 2 mps 755 mmHg 49%
    11:00 +30°C° 0 mm 3 mps 755 mmHg 45%
    12:00 +33°C° 0 mm 3 mps 754 mmHg 41%
    13:00 +33°C° 0 mm 3 mps 754 mmHg 39%
    14:00 +34°C° 0 mm 3 mps 753 mmHg 37%
    15:00 +34°C° 0 mm 3 mps 753 mmHg 36%
    16:00 +33°C° 0 mm 3 mps 753 mmHg 39%
    17:00 +30°C° 0 mm 3 mps 752 mmHg 42%
    18:00 +29°C° 0 mm 2 mps 752 mmHg 45%
    19:00 +28°C° 0 mm 2 mps 753 mmHg 45%
    20:00 +28°C° 0 mm 2 mps 753 mmHg 46%
    21:00 +27°C° 0 mm 2 mps 753 mmHg 46%
    22:00 +26°C° 0 mm 2 mps 753 mmHg 46%
    23:00 +26°C° 0 mm 2 mps 753 mmHg 46%

    Tomorrow, 20 November, Monday

    Time Temperature Precipitation Wind Pressure Humidity
    00:00 +25°C° 0 mm 2 mps 753 mmHg 46%
    01:00 +25°C° 0 mm 3 mps 753 mmHg 46%
    02:00 +24°C° 0 mm 3 mps 753 mmHg 47%
    03:00 +24°C° 0 mm 3 mps 753 mmHg 47%
    04:00 +24°C° 0 mm 3 mps 753 mmHg 48%
    05:00 +22°C° 0 mm 3 mps 753 mmHg 49%
    06:00 +22°C° 0 mm 3 mps 753 mmHg 49%
    07:00 +24°C° 0 mm 3 mps 754 mmHg 47%
    08:00 +25°C° 0 mm 3 mps 755 mmHg 45%
    09:00 +26°C° 0 mm 3 mps 756 mmHg 43%
    10:00 +28°C° 0 mm 4 mps 755 mmHg 39%
    11:00 +30°C° 0 mm 4 mps 755 mmHg 35%
    12:00 +32°C° 0 mm 5 mps 755 mmHg 32%
    13:00 +32°C° 0 mm 5 mps 755 mmHg 31%
    14:00 +33°C° 0 mm 5 mps 754 mmHg 30%
    15:00 +33°C° 0 mm 6 mps 753 mmHg 29%
    16:00 +30°C° 0 mm 5 mps 753 mmHg 32%
    17:00 +29°C° 0 mm 4 mps 753 mmHg 35%
    18:00 +27°C° 0 mm 3 mps 752 mmHg 37%
    19:00 +27°C° 0 mm 3 mps 753 mmHg 38%
    20:00 +26°C° 0 mm 3 mps 753 mmHg 38%
    21:00 +25°C° 0 mm 3 mps 754 mmHg 38%
    22:00 +25°C° 0 mm 3 mps 754 mmHg 39%
    23:00 +24°C° 0 mm 3 mps 754 mmHg 40%

    Day after tomorrow, 21 November, Tuesday

    Time Temperature Precipitation Wind Pressure Humidity
    00:00 +22°C° 0 mm 3 mps 754 mmHg 42%
    01:00 +22°C° 0 mm 3 mps 754 mmHg 42%
    02:00 +21°C° 0 mm 3 mps 754 mmHg 42%
    03:00 +20°C° 0 mm 3 mps 753 mmHg 42%
    04:00 +20°C° 0 mm 3 mps 754 mmHg 40%
    05:00 +19°C° 0 mm 3 mps 754 mmHg 39%
    06:00 +19°C° 0 mm 3 mps 754 mmHg 38%
    07:00 +20°C° 0 mm 3 mps 754 mmHg 36%
    08:00 +21°C° 0 mm 4 mps 755 mmHg 33%
    09:00 +22°C° 0 mm 4 mps 756 mmHg 31%
    10:00 +25°C° 0 mm 4 mps 756 mmHg 27%
    11:00 +27°C° 0 mm 4 mps 755 mmHg 24%
    12:00 +28°C° 0 mm 5 mps 755 mmHg 20%
    13:00 +29°C° 0 mm 5 mps 754 mmHg 19%
    14:00 +29°C° 0 mm 5 mps 754 mmHg 19%
    15:00 +29°C° 0 mm 5 mps 753 mmHg 18%
    16:00 +27°C° 0 mm 4 mps 753 mmHg 21%
    17:00 +26°C° 0 mm 3 mps 753 mmHg 24%
    18:00 +24°C° 0 mm 3 mps 753 mmHg 27%
    19:00 +22°C° 0 mm 3 mps 753 mmHg 27%
    20:00 +21°C° 0 mm 3 mps 754 mmHg 28%
    21:00 +21°C° 0 mm 2 mps 754 mmHg 29%
    22:00 +20°C° 0 mm 2 mps 754 mmHg 30%
    23:00 +20°C° 0 mm 2 mps 754 mmHg 31%

    22 November, Wednesday

    Time Temperature Precipitation Wind Pressure Humidity
    00:00 +19°C° 0 mm 2 mps 754 mmHg 32%
    01:00 +19°C° 0 mm 2 mps 754 mmHg 33%
    02:00 +18°C° 0 mm 2 mps 754 mmHg 34%
    03:00 +18°C° 0 mm 2 mps 753 mmHg 35%
    04:00 +17°C° 0 mm 2 mps 753 mmHg 36%
    05:00 +17°C° 0 mm 2 mps 753 mmHg 37%
    06:00 +16°C° 0 mm 2 mps 754 mmHg 38%
    07:00 +18°C° 0 mm 2 mps 754 mmHg 37%
    08:00 +19°C° 0 mm 2 mps 755 mmHg 36%
    09:00 +20°C° 0 mm 3 mps 756 mmHg 35%
    10:00 +22°C° 0 mm 3 mps 755 mmHg 32%
    11:00 +25°C° 0 mm 3 mps 755 mmHg 29%
    12:00 +27°C° 0 mm 3 mps 755 mmHg 26%
    13:00 +27°C° 0 mm 3 mps 754 mmHg 25%
    14:00 +28°C° 0 mm 3 mps 754 mmHg 24%
    15:00 +28°C° 0 mm 3 mps 753 mmHg 23%
    16:00 +27°C° 0 mm 3 mps 753 mmHg 26%
    17:00 +25°C° 0 mm 3 mps 753 mmHg 29%
    18:00 +23°C° 0 mm 2 mps 752 mmHg 31%
    19:00 +23°C° 0 mm 2 mps 753 mmHg 32%
    20:00 +21°C° 0 mm 2 mps 753 mmHg 33%
    21:00 +20°C° 0 mm 2 mps 754 mmHg 34%
    22:00 +20°C° 0 mm 2 mps 753 mmHg 34%
    23:00 +19°C° 0 mm 2 mps 753 mmHg 35%

    23 November, Thursday

    Time Temperature Precipitation Wind Pressure Humidity
    00:00 +19°C° 0 mm 2 mps 753 mmHg 36%
    01:00 +18°C° 0 mm 2 mps 753 mmHg 36%
    02:00 +18°C° 0 mm 2 mps 753 mmHg 37%
    03:00 +17°C° 0 mm 2 mps 753 mmHg 38%
    04:00 +17°C° 0 mm 2 mps 753 mmHg 39%
    05:00 +16°C° 0 mm 2 mps 753 mmHg 40%
    06:00 +16°C° 0 mm 2 mps 754 mmHg 41%
    07:00 +17°C° 0 mm 2 mps 754 mmHg 39%
    08:00 +19°C° 0 mm 2 mps 755 mmHg 37%
    09:00 +20°C° 0 mm 2 mps 756 mmHg 35%
    10:00 +23°C° 0 mm 2 mps 756 mmHg 32%
    11:00 +24°C° 0 mm 2 mps 755 mmHg 28%
    12:00 +26°C° 0 mm 2 mps 755 mmHg 25%
    13:00 +27°C° 0 mm 2 mps 754 mmHg 24%
    14:00 +27°C° 0 mm 2 mps 754 mmHg 22%
    15:00 +28°C° 0 mm 2 mps 753 mmHg 21%
    16:00 +26°C° 0 mm 2 mps 753 mmHg 24%
    17:00 +25°C° 0 mm 2 mps 753 mmHg 26%
    18:00 +23°C° 0 mm 2 mps 753 mmHg 29%
    19:00 +22°C° 0 mm 1 mps 753 mmHg 30%
    20:00 +22°C° 0 mm 1 mps 754 mmHg 31%
    21:00 +21°C° 0 mm 1 mps 754 mmHg 32%
    22:00 +21°C° 0 mm 1 mps 754 mmHg 33%
    23:00 +20°C° 0 mm 1 mps 754 mmHg 34%

    24 November, Friday

    Time Temperature Precipitation Wind Pressure Humidity
    00:00 +20°C° 0 mm 1 mps 754 mmHg 35%
    01:00 +19°C° 0 mm 1 mps 754 mmHg 36%
    02:00 +19°C° 0 mm 1 mps 754 mmHg 37%
    03:00 +18°C° 0 mm 1 mps 753 mmHg 38%
    04:00 +18°C° 0 mm 1 mps 754 mmHg 39%
    05:00 +16°C° 0 mm 1 mps 754 mmHg 40%
    06:00 +16°C° 0 mm 1 mps 754 mmHg 41%
    07:00 +18°C° 0 mm 1 mps 755 mmHg 39%
    08:00 +19°C° 0 mm 2 mps 755 mmHg 38%
    09:00 +20°C° 0 mm 2 mps 756 mmHg 36%
    10:00 +23°C° 0 mm 2 mps 756 mmHg 32%
    11:00 +24°C° 0 mm 2 mps 755 mmHg 29%
    12:00 +26°C° 0 mm 2 mps 755 mmHg 25%
    13:00 +27°C° 0 mm 2 mps 755 mmHg 24%
    14:00 +27°C° 0 mm 2 mps 754 mmHg 22%
    15:00 +28°C° 0 mm 2 mps 753 mmHg 20%
    16:00 +26°C° 0 mm 2 mps 753 mmHg 23%
    17:00 +25°C° 0 mm 2 mps 753 mmHg 25%
    18:00 +23°C° 0 mm 2 mps 753 mmHg 28%
    19:00 +21°C° 0 mm 2 mps 754 mmHg 28%
    20:00 +21°C° 0 mm 2 mps 754 mmHg 29%
    21:00 +20°C° 0 mm 2 mps 754 mmHg 30%
    22:00 +20°C° 0 mm 1 mps 754 mmHg 30%
    23:00 +20°C° 0 mm 1 mps 754 mmHg 31%
    Show more